Flag for U.S.A. Weather past 2 weeks in Lubbock, Texas, U.S.A.

Now
76 °F

Passing clouds.


Feels Like: 76 °F
Forecast: 44 / 76 °F
Wind: 22 mph from West

Location: Lubbock International Airport

Current Time: Jan 28, 2015 at 4:35:23 PM

Latest Report: Jan 28, 2015 at 3:53 PM


Visibility: 10 mi

Pressure: 29.92 "Hg

Humidity: 18%

Dew point: 29 °F

Location of LubbockLocation

Historic Weather in Lubbock — Graph

°F

Lubbock temperature yesterday

Maximum temperature yesterday: 73 °F (at 2:53 PM)
Minimum temperature yesterday: 34 °F (at 5:53 AM)
Average temperature yesterday: 52 °F

Past Weeks' High & Low Weather Summary

 TemperatureHumidityPressure
High76 °F (Jan 28, 2:53 PM)97% (Jan 21, 7:53 PM)30.39 "Hg (Jan 21, 7:53 PM)
Low17 °F (Jan 23, 7:53 AM)13% (Jan 18, 12:53 PM)29.83 "Hg (Jan 20, 4:53 AM)
Average42 °F61%30.16 "Hg
* Reported Jan 13 2:53 PM — Jan 28 2:53 PM, Lubbock, Weather by CustomWeather, © 2014

Note: Actual official high and low records may vary slightly from our data, if they occured in-between our weather recording intervals... More about our weather records

Advertising

Lubbock weather history for previous 24 hours

 ConditionsComfort  
Time TempWeatherWind HumidityBarometerVisibility
2:53 PM
Jan 28
76 °FScattered clouds.23 mph21%29.93 "Hg10 mi
1:53 PM75 °FScattered clouds.26 mph22%29.93 "Hg10 mi
12:53 PM73 °FScattered clouds.26 mph26%29.97 "Hg10 mi
11:53 AM70 °FPartly sunny.22 mph31%30.01 "Hg10 mi
10:53 AM63 °FPartly sunny.15 mph47%30.03 "Hg10 mi
9:53 AM51 °FPartly sunny.13 mph69%30.06 "Hg10 mi
8:53 AM46 °FPartly sunny.8 mph73%30.05 "Hg10 mi
7:53 AM39 °FScattered clouds.8 mph86%30.06 "Hg10 mi
6:53 AM41 °FPassing clouds.9 mph82%30.04 "Hg10 mi
5:53 AM42 °FPassing clouds.9 mph79%30.03 "Hg10 mi
4:53 AM40 °FPassing clouds.10 mph83%30.01 "Hg10 mi
3:53 AM42 °FClear.7 mph76%30.01 "Hg10 mi
2:53 AM41 °FClear.9 mph76%30.03 "Hg10 mi
1:53 AM43 °FClear.9 mph71%30.02 "Hg10 mi
12:53 AM47 °FClear.9 mph64%30.04 "Hg10 mi
11:53 PM
Jan 27
51 °FClear.9 mph52%30.06 "Hg10 mi
10:53 PM53 °FClear.12 mph47%30.06 "Hg10 mi
9:53 PM50 °FClear.10 mph52%30.09 "Hg10 mi
8:53 PM53 °FClear.9 mph47%30.10 "Hg10 mi
7:53 PM59 °FClear.8 mph36%30.10 "Hg10 mi
6:53 PM60 °FPassing clouds.8 mph35%30.10 "Hg10 mi
5:53 PM66 °FPassing clouds.8 mph28%30.09 "Hg10 mi
4:53 PM72 °FPartly sunny.10 mph23%30.07 "Hg10 mi
Weather by CustomWeather, © 2014

See weather overviewHow to use our weather pages